Jasper, AL

7:32 PM CDT on August 17, 2019 (GMT -0500)
Walker County-Bevill

Weather History for KJFX - May, 2019

Change the Weather History Date:

Saturday, May 18, 2019

  Actual Average Record
Temperature  
Mean Temperature 76 °F -  
Max Temperature 91 °F 81 °F 96 °F (1962)
Min Temperature 60 °F 54 °F 37 °F (1973)
Cooling Degree Days 10    
Growing Degree Days 26 (Base 50)    
Moisture  
Dew Point 65 °F    
Average Humidity 75    
Maximum Humidity 100    
Minimum Humidity 40    
Precipitation  
Precipitation 0.00 in - - ()
Sea Level Pressure  
Sea Level Pressure 29.98 in    
Wind  
Wind Speed - (North)    
Max Wind Speed -    
Max Gust Speed -    
Averages and records for this station are not official NWS values.
T = Trace of Precipitation, MM = Missing Value Source: NWS Daily Summary

Daily Weather History Graph

Daily Weather History Graph

Search for Another Location

Airport or City:

Astronomy

May. 18, 2019 Rise Set
Actual Time 5:46 AM CDT 7:45 PM CDT
Civil Twilight 5:18 AM CDT 8:13 PM CDT
Nautical Twilight 4:44 AM CDT 8:47 PM CDT
Astronomical Twilight 4:08 AM CDT 9:23 PM CDT
Moon 7:43 PM CDT 5:48 AM CDT
Length of Visible Light 14h 55m
Length of Day
13h 59m
Full, 100% of the Moon is Illuminated
May 18
Full
May 18
Full
May 26
Last Quarter
Jun 3
New
Jun 10
First Quarter

Hourly Weather History & Observations

Time (CDT) Temp. Heat Index Dew Point Humidity Pressure Visibility Wind Dir Wind Speed Gust Speed Precip Events Conditions
12:35 AM 66.2 °F - 66.2 °F 100% 29.99 in - North - - N/A   Unknown
12:55 AM 64.4 °F - 64.4 °F 100% 29.99 in - North - - N/A   Unknown
1:15 AM 64.4 °F - 64.4 °F 100% 29.98 in - North - - N/A   Unknown
1:35 AM 64.4 °F - 64.4 °F 100% 29.98 in - North - - N/A   Unknown
1:55 AM 64.4 °F - 64.4 °F 100% 29.99 in - North - - N/A   Unknown
2:15 AM 64.4 °F - 64.4 °F 100% 29.98 in - North - - N/A   Unknown
2:35 AM 64.4 °F - 64.4 °F 100% 29.99 in - North - - N/A   Unknown
2:55 AM 64.4 °F - 64.4 °F 100% 29.99 in - North - - N/A   Unknown
3:15 AM 62.6 °F - 62.6 °F 100% 29.99 in - North - - N/A   Unknown
3:35 AM 62.6 °F - 62.6 °F 100% 29.99 in - North - - N/A   Unknown
3:55 AM 62.6 °F - 62.6 °F 100% 29.99 in - North - - N/A   Unknown
4:15 AM 62.6 °F - 62.6 °F 100% 29.99 in - North - - N/A   Unknown
4:35 AM 62.6 °F - 62.6 °F 100% 29.99 in - North - - N/A   Unknown
4:55 AM 62.6 °F - 62.6 °F 100% 29.98 in - North - - N/A   Unknown
5:15 AM 60.8 °F - 60.8 °F 100% 29.99 in - North - - N/A   Unknown
5:35 AM - - - N/A% 30.00 in - North - - N/A   Unknown
5:55 AM 60.8 °F - 60.8 °F 100% 30.01 in - North - - N/A   Unknown
6:15 AM 60.8 °F - 60.8 °F 100% 30.01 in - North - - N/A   Unknown
6:35 AM 62.6 °F - 62.6 °F 100% 30.01 in - North - - N/A   Unknown
6:55 AM 64.4 °F - 64.4 °F 100% 30.02 in - North - - N/A   Unknown
7:15 AM 66.2 °F - 66.2 °F 100% 30.03 in - North - - N/A   Unknown
7:35 AM 68.0 °F - 68.0 °F 100% 30.03 in - North - - N/A   Unknown
7:55 AM 71.6 °F - 69.8 °F 94% 30.03 in - North - - N/A   Unknown
8:15 AM 73.4 °F - 69.8 °F 88% 30.04 in - North - - N/A   Unknown
8:35 AM 77.0 °F - 68.0 °F 74% 30.04 in - North - - N/A   Unknown
8:55 AM 78.8 °F - 68.0 °F 69% 30.04 in - North - - N/A   Unknown
9:15 AM 80.6 °F 83.2 °F 68.0 °F 65% 30.04 in - North - - N/A   Unknown
9:35 AM 80.6 °F 83.2 °F 68.0 °F 65% 30.04 in - North - - N/A   Unknown
9:55 AM 82.4 °F 84.6 °F 66.2 °F 58% 30.04 in - North - - N/A   Unknown
10:15 AM 84.2 °F 86.6 °F 66.2 °F 55% 30.03 in - North - - N/A   Unknown
10:35 AM 84.2 °F 86.6 °F 66.2 °F 55% 30.03 in - North - - N/A   Unknown
10:55 AM 86.0 °F 88.2 °F 66.2 °F 51% 30.02 in - North - - N/A   Unknown
11:15 AM 86.0 °F 88.2 °F 66.2 °F 51% 30.01 in - North - - N/A   Unknown
11:35 AM 84.2 °F 86.6 °F 66.2 °F 55% 30.01 in - North - - N/A   Unknown
11:55 AM 86.0 °F 88.2 °F 66.2 °F 51% 30.01 in - North - - N/A   Unknown
12:15 PM 87.8 °F 90.4 °F 66.2 °F 49% 30.01 in - North - - N/A   Unknown
12:35 PM 87.8 °F 91.4 °F 68.0 °F 52% 29.99 in - North - - N/A   Unknown
12:55 PM 89.6 °F 92.2 °F 66.2 °F 46% 29.99 in - North - - N/A   Unknown
1:15 PM 87.8 °F 90.4 °F 66.2 °F 49% 29.98 in - North - - N/A   Unknown
1:35 PM 89.6 °F 91.1 °F 64.4 °F 43% 29.97 in - North - - N/A   Unknown
1:55 PM 87.8 °F 90.4 °F 66.2 °F 49% 29.97 in - North - - N/A   Unknown
2:15 PM 89.6 °F 92.2 °F 66.2 °F 46% 29.97 in - North - - N/A   Unknown
2:35 PM 89.6 °F 91.1 °F 64.4 °F 43% 29.96 in - North - - N/A   Unknown
2:55 PM 89.6 °F 92.2 °F 66.2 °F 46% 29.96 in - North - - N/A   Unknown
3:15 PM 89.6 °F 92.2 °F 66.2 °F 46% 29.96 in - North - - N/A   Unknown
3:35 PM 91.4 °F 94.0 °F 66.2 °F 43% 29.96 in - North - - N/A   Unknown
3:55 PM 89.6 °F 92.2 °F 66.2 °F 46% 29.95 in - North - - N/A   Unknown
4:15 PM 87.8 °F 90.4 °F 66.2 °F 49% 29.95 in - North - - N/A   Unknown
4:35 PM 89.6 °F 92.2 °F 66.2 °F 46% 29.95 in - North - - N/A   Unknown
4:55 PM 89.6 °F 91.1 °F 64.4 °F 43% 29.95 in - North - - N/A   Unknown
5:15 PM 89.6 °F 90.1 °F 62.6 °F 40% 29.94 in - North - - N/A   Unknown
5:35 PM 87.8 °F 88.5 °F 62.6 °F 43% 29.93 in - North - - N/A   Unknown
5:55 PM 87.8 °F 88.5 °F 62.6 °F 43% 29.93 in - North - - N/A   Unknown
6:15 PM 86.0 °F 87.3 °F 64.4 °F 48% 29.92 in - North - - N/A   Unknown
6:35 PM 84.2 °F 85.0 °F 62.6 °F 48% 29.91 in - North - - N/A   Unknown
6:55 PM 84.2 °F 85.0 °F 62.6 °F 48% 29.92 in - North - - N/A   Unknown
7:15 PM 82.4 °F 83.9 °F 64.4 °F 54% 29.92 in - North - - N/A   Unknown
7:35 PM 77.0 °F - 66.2 °F 69% 29.92 in - North - - N/A   Unknown
7:55 PM 73.4 °F - 68.0 °F 83% 29.92 in - North - - N/A   Unknown
8:15 PM 71.6 °F - 66.2 °F 83% 29.92 in - North - - N/A   Unknown
8:35 PM 71.6 °F - 69.8 °F 94% 29.92 in - North - - N/A   Unknown
8:55 PM 69.8 °F - 68.0 °F 94% 29.92 in - North - - N/A   Unknown
9:15 PM - - - N/A% 29.93 in - North - - N/A   Unknown
9:35 PM 68.0 °F - 68.0 °F 100% 29.94 in - North - - N/A   Unknown
9:55 PM 68.0 °F - 68.0 °F 100% 29.95 in - North - - N/A   Unknown
10:15 PM 66.2 °F - 66.2 °F 100% 29.95 in - North - - N/A   Unknown
10:35 PM 66.2 °F - 66.2 °F 100% 29.95 in - North - - N/A   Unknown
10:55 PM 64.4 °F - 64.4 °F 100% 29.96 in - North - - N/A   Unknown
11:15 PM 64.4 °F - 64.4 °F 100% 29.96 in - North - - N/A   Unknown
11:35 PM 64.4 °F - 64.4 °F 100% 29.96 in - North - - N/A   Unknown
11:55 PM 64.4 °F - 64.4 °F 100% 29.97 in - North - - N/A   Unknown